FW3274 Weather Reports


Display with metric or nautical units.
time (UTC)temp
F
wind
direction
speed
MPH
gust
MPH
rain 1hr
in
rain 24hr
in
rain mn
in
humidity
%
barometer
mb
20260902224554 74 159 0.0 0.0 0.00 0.00 0.00 66 1012.7
20260902223043 74 159 0.0 0.0 0.00 0.00 0.00 66 1012.7
20260902221546 74 159 0.0 0.0 0.00 0.00 0.00 67 1012.6
20260902220037 74 165 0.0 0.0 0.00 0.00 0.00 67 1012.3
20260902214537 75 165 0.0 0.0 0.00 0.00 0.00 68 1012.1
20260902213036 75 165 0.0 0.0 0.00 0.00 0.00 65 1012.1
20260902211545 75 165 0.0 0.0 0.00 0.00 0.00 65 1012.1
20260902210036 76 165 0.0 0.0 0.00 0.00 0.00 64 1012.2
20260902204535 76 165 0.0 0.0 0.00 0.00 0.00 64 1012.0
20260902203034 76 165 0.0 0.0 0.00 0.00 0.00 63 1011.9
20260902201538 77 165 0.0 0.0 0.00 0.00 0.00 63 1011.9
20260902200036 77 165 0.0 0.0 0.00 0.00 0.00 62 1012.0
20260902194536 78 165 0.0 0.0 0.00 0.00 0.00 60 1011.8
20260902193032 78 165 0.0 0.0 0.00 0.00 0.00 59 1011.6
20260902191536 79 165 0.0 0.0 0.00 0.00 0.00 58 1011.4
20260902190032 80 165 0.0 0.0 0.00 0.00 0.00 56 1011.4
20260902184531 80 165 0.0 0.0 0.00 0.00 0.00 55 1011.2
20260902183032 81 165 0.0 0.0 0.00 0.00 0.00 53 1010.9
20260902181530 82 165 0.0 0.0 0.00 0.00 0.00 50 1010.7
20260902180030 83 165 0.0 0.0 0.00 0.00 0.00 48 1010.7
20260902174530 84 165 0.0 0.0 0.00 0.00 0.00 47 1010.5
20260902173029 84 165 0.0 0.0 0.00 0.00 0.00 47 1010.5
20260902171529 86 165 0.0 0.0 0.00 0.00 0.00 46 1010.5
20260902170028 87 165 0.0 0.0 0.00 0.00 0.00 42 1010.4
20260902164529 88 165 0.0 0.0 0.00 0.00 0.00 41 1010.5
20260902163027 88 165 0.0 0.0 0.00 0.00 0.00 42 1010.4
20260902161532 88 150 0.0 0.0 0.00 0.00 0.00 43 1010.4
20260902160026 89 96 0.0 0.0 0.00 0.00 0.00 39 1010.5
20260902154530 89 71 0.0 1.0 0.00 0.00 0.00 40 1010.5
20260902153025 90 215 0.0 2.0 0.00 0.00 0.00 39 1010.5
20260902151522 89 226 0.0 0.0 0.00 0.00 0.00 40 1010.7
20260902150021 89 238 0.0 2.0 0.00 0.00 0.00 40 1010.9
20260902144530 89 248 0.0 3.0 0.00 0.00 0.00 39 1011.0
20260902143020 90 243 0.0 2.0 0.00 0.00 0.00 39 1011.1
20260902141522 89 200 0.0 2.0 0.00 0.00 0.00 40 1011.3
20260902140018 89 31 0.0 2.0 0.00 0.00 0.00 40 1011.3
20260902134530 89 329 0.0 0.0 0.00 0.00 0.00 42 1011.4
20260902133020 89 327 0.0 3.0 0.00 0.00 0.00 40 1011.5
20260902131514 88 243 0.0 3.0 0.00 0.00 0.00 39 1011.6
20260902130009 88 62 0.0 1.0 0.00 0.00 0.00 42 1011.8
20260902124509 89 76 0.0 1.0 0.00 0.00 0.00 41 1011.9
20260902123008 88 78 0.0 1.0 0.00 0.00 0.00 40 1012.1
20260902121505 87 100 0.0 0.0 0.00 0.00 0.00 43 1012.3
20260902120004 86 84 0.0 1.0 0.00 0.00 0.00 41 1012.3
20260902114505 88 95 0.0 1.0 0.00 0.00 0.00 39 1012.4
20260902113003 86 101 0.0 0.0 0.00 0.00 0.00 43 1012.4
20260902111503 86 109 0.0 1.0 0.00 0.00 0.00 42 1012.7
20260902110002 88 76 0.0 4.0 0.00 0.00 0.00 39 1012.8
20260902104600 87 94 0.0 0.0 0.00 0.00 0.00 39 1013.0
20260902103059 86 56 0.0 1.0 0.00 0.00 0.00 41 1013.2
20260902101606 88 99 0.0 2.0 0.00 0.00 0.00 41 1013.2
20260902100110 87 64 0.0 4.0 0.00 0.00 0.00 42 1013.3
20260902094555 86 58 0.0 4.0 0.00 0.00 0.00 45 1013.4
20260902093053 86 74 0.0 5.0 0.00 0.00 0.00 43 1013.5
20260902091555 85 69 0.0 2.0 0.00 0.00 0.00 43 1013.5
20260902090053 85 60 0.0 2.0 0.00 0.00 0.00 44 1013.6
20260902084600 85 113 0.0 4.0 0.00 0.00 0.00 44 1013.5
20260902083049 85 67 0.0 3.0 0.00 0.00 0.00 46 1013.5
20260902081556 84 89 0.0 1.0 0.00 0.00 0.00 44 1013.5
20260902080044 83 92 0.0 4.0 0.00 0.00 0.00 45 1013.4
20260902074540 83 101 0.0 0.0 0.00 0.00 0.00 50 1013.3
20260902073049 82 305 0.0 1.0 0.00 0.00 0.00 52 1013.1
20260902071535 80 298 0.0 0.0 0.00 0.00 0.00 54 1013.1
20260902070031 79 284 0.0 1.0 0.00 0.00 0.00 55 1013.0
20260902064527 78 298 0.0 0.0 0.00 0.00 0.00 57 1013.0
20260902063024 76 307 0.0 3.0 0.00 0.00 0.00 61 1012.9
20260902061522 75 316 0.0 2.0 0.00 0.00 0.00 61 1012.9
20260902060018 74 337 0.0 1.0 0.00 0.00 0.00 64 1012.8
20260902054518 72 311 0.0 0.0 0.00 0.00 0.00 67 1012.8
20260902053017 70 317 0.0 0.0 0.00 0.00 0.00 69 1012.7
20260902051518 70 317 0.0 0.0 0.00 0.00 0.00 69 1012.5
20260902050016 70 317 0.0 0.0 0.00 0.00 0.00 70 1012.6
20260902044517 69 318 0.0 0.0 0.00 0.00 0.00 70 1012.6
20260902043014 69 318 0.0 0.0 0.00 0.00 0.00 70 1012.7
20260902041514 70 318 0.0 0.0 0.00 0.00 0.00 70 1012.5
20260902040009 71 318 0.0 0.0 0.00 0.00 0.00 68 1012.5
20260902034509 71 318 0.0 0.0 0.00 0.00 0.00 67 1012.4
20260902033009 71 318 0.0 0.0 0.00 0.00 0.00 67 1012.5
20260902031509 71 317 0.0 0.0 0.00 0.00 0.00 67 1012.4
20260902030010 71 312 0.0 0.0 0.00 0.00 0.00 67 1012.5
20260902024506 72 309 0.0 0.0 0.00 0.00 0.00 67 1012.6
20260902023009 71 313 0.0 0.0 0.00 0.00 0.00 67 1012.5
20260902021506 71 316 0.0 0.0 0.00 0.00 0.00 67 1012.4
20260902020005 71 317 0.0 0.0 0.00 0.00 0.00 68 1012.5
20260902014517 71 15 0.0 0.0 0.00 0.00 0.00 69 1012.5
20260902013004 71 86 0.0 0.0 0.00 0.00 0.00 69 1012.5
20260902011502 72 88 0.0 0.0 0.00 0.00 0.00 68 1012.4
20260902010106 72 88 0.0 0.0 0.00 0.00 0.00 67 1012.6
20260902004558 73 19 0.0 0.0 0.00 0.00 0.00 66 1012.6
20260902003056 73 19 0.0 0.0 0.00 0.00 0.00 65 1012.6
20260902001610 73 19 0.0 0.0 0.00 0.00 0.00 65 1012.8
20260902000054 73 19 0.0 0.0 0.00 0.00 0.00 65 1012.9
20260901234553 73 30 0.0 0.0 0.00 0.00 0.00 65 1012.9
20260901233056 74 30 0.0 0.0 0.00 0.00 0.00 64 1012.8
20260901231549 74 30 0.0 0.0 0.00 0.00 0.00 63 1012.7
20260901230047 74 30 0.0 0.0 0.00 0.00 0.00 63 1012.7